Content
SEND FEEDBACK

Daily
Averages
Monthly
Summary
United States of America

JORDAN, IOWA


Home > North America > United States > Iowa
Elevation: 1100 feet     Latitude: 42 02N     Longitude: 093 48W

WEATHER
 
SELECT A DAY
Number of Records: 422,327;   Date Range: 2/11/95 - 10/24/14
 
SHARE

PRINT THIS DATA

[ ← Previous Day ]
WEATHER ALMANAC - FEBRUARY 13, 2013
[ Next Day → ]
[ °C ]   °F
Weather ElementAverageHighLow
Temperature36.3 °F47.3 °F (3:15 pm)25.7 °F (6:15 am)
Dewpoint27.6 °F31.8 °F (1:55 pm)22.3 °F (7:15 am)
Humidity72.2 %88 % (4:15 am)50 % (4:15 pm)
Barometer29.76 in29.86 in (12:35 am)29.67 in (8:15 pm)
Wind Speed9.6 mph17.3 mph (11:55 pm)
Wind Gust24.2 mph (11:55 pm)
Weather ElementAverage
Visibility10 mi
Wind DirectionWSW (255.3 °)

Weather ElementTotal
Precipitation---
Heating Degree Days28.5 (Base 65)
Averaged from 70 records on February 13, 2013
WEATHER CONDITIONS BREAKOUT
WIND DIRECTION BREAKOUT
WEATHER BY HOUR - FEBRUARY 13, 2013
[ °C ]   °F
Local TimeTemperatureDewpointHumidityBarometerVisibilityWind DirectionWind SpeedGust SpeedPrecipitationEventsConditions
12:35 AM29.3 °F24.8 °F83 %29.86 in10.0 miWest (280°)8.1 mphClear
12:55 AM29.3 °F24.8 °F83 %29.86 in10.0 miWest (280°)8.1 mphClear
1:15 AM29.3 °F25.2 °F85 %29.86 in10.0 miWest (270°)8.1 mphClear
1:35 AM29.1 °F24.8 °F84 %29.86 in10.0 miWest (280°)8.1 mphClear
1:55 AM29.1 °F24.8 °F84 %29.85 in10.0 miWest (260°)6.9 mphClear
2:15 AM28.2 °F24.6 °F86 %29.85 in10.0 miWest (270°)8.1 mphClear
2:35 AM28.4 °F24.1 °F84 %29.84 in10.0 miWest (280°)8.1 mphClear
2:55 AM28.0 °F23.9 °F84 %29.83 in10.0 miWest (270°)8.1 mphClear
3:15 AM27.7 °F23.5 °F84 %29.83 in10.0 miWest (280°)8.1 mphClear
3:35 AM27.5 °F23.5 °F85 %29.83 in10.0 miWest (270°)5.8 mphClear
3:55 AM27.1 °F23.5 °F86 %29.82 in10.0 miWest (260°)5.8 mphClear
4:15 AM26.6 °F23.4 °F88 %29.82 in10.0 miWest (270°)5.8 mphClear
4:35 AM26.6 °F23.0 °F86 %29.82 in10.0 miWest (280°)6.9 mphClear
4:55 AM26.2 °F22.8 °F87 %29.81 in10.0 miWest (280°)8.1 mphClear
5:15 AM26.2 °F22.8 °F87 %29.81 in10.0 miWest (280°)8.1 mphClear
5:35 AM26.2 °F22.8 °F87 %29.81 in10.0 miWest (280°)8.1 mphClear
5:55 AM26.1 °F22.6 °F87 %29.80 in10.0 miWest (270°)5.8 mphClear
6:15 AM25.7 °F22.5 °F88 %29.80 in10.0 miWest (270°)6.9 mphClear
6:35 AM25.7 °F22.5 °F88 %29.80 in10.0 miWest (280°)8.1 mphClear
6:55 AM25.7 °F22.5 °F88 %29.80 in10.0 miWest (280°)8.1 mphClear
7:15 AM25.7 °F22.3 °F87 %29.80 in10.0 miWest (280°)9.2 mphClear
7:35 AM25.7 °F22.6 °F88 %29.81 in10.0 miWest (270°)6.9 mphClear
7:55 AM26.4 °F22.8 °F86 %29.81 in10.0 miWest (270°)9.2 mphScattered Clouds
8:15 AM27.5 °F23.7 °F86 %29.81 in10.0 miWest (280°)9.2 mphScattered Clouds
8:55 AM30.4 °F25.5 °F82 %29.81 in10.0 miWest (280°)9.2 mphClear
9:15 AM30.7 °F25.5 °F81 %29.81 in10.0 miWest (270°)10.4 mphClear
9:35 AM32.0 °F26.8 °F81 %29.81 in10.0 miWest (270°)8.1 mphClear
9:55 AM32.7 °F27.1 °F80 %29.81 in10.0 miWest (270°)10.4 mphClear
10:15 AM34.2 °F27.5 °F77 %29.81 in10.0 miWest (270°)8.1 mphClear
10:35 AM34.3 °F27.7 °F77 %29.81 in10.0 miWest (270°)9.2 mphClear
10:55 AM34.5 °F28.0 °F77 %29.80 in10.0 miWest (260°)9.2 mphClear
11:15 AM36.7 °F29.1 °F74 %29.80 in10.0 miWSW (250°)10.4 mphClear
11:35 AM37.8 °F28.9 °F71 %29.80 in10.0 miWest (260°)12.7 mph16.1 mphClear
11:55 AM38.7 °F29.1 °F69 %29.79 in10.0 miWSW (250°)11.5 mphClear
12:15 PM40.1 °F30.4 °F68 %29.78 in10.0 miWSW (250°)11.5 mphClear
12:35 PM41.2 °F30.2 °F65 %29.77 in10.0 miWest (270°)11.5 mphClear
12:55 PM42.1 °F30.9 °F65 %29.76 in10.0 miWSW (250°)9.2 mphClear
1:15 PM43.0 °F30.4 °F61 %29.76 in10.0 miWSW (240°)16.1 mphClear
1:35 PM44.1 °F30.9 °F60 %29.75 in10.0 miWSW (240°)10.4 mphClear
1:55 PM45.0 °F31.8 °F60 %29.75 in10.0 miWSW (250°)11.5 mph16.1 mphClear
2:15 PM45.5 °F31.3 °F58 %29.74 in10.0 miSW (230°)10.4 mphClear
2:35 PM46.4 °F29.5 °F52 %29.73 in10.0 miWSW (250°)13.8 mph18.4 mphClear
2:55 PM46.8 °F30.9 °F54 %29.72 in10.0 miSW (220°)11.5 mph18.4 mphClear
3:15 PM47.3 °F30.2 °F52 %29.72 in10.0 miWSW (250°)12.7 mphClear
3:35 PM46.9 °F30.6 °F53 %29.72 in10.0 miWSW (240°)13.8 mph19.6 mphClear
3:55 PM47.1 °F30.0 °F51 %29.71 in10.0 miSW (230°)10.4 mphMostly Cloudy
4:15 PM47.1 °F29.3 °F50 %29.70 in10.0 miSW (230°)13.8 mph18.4 mphScattered Clouds
4:35 PM47.1 °F29.8 °F51 %29.70 in10.0 miSW (230°)12.7 mph17.3 mphClear
4:55 PM45.1 °F30.4 °F56 %29.70 in10.0 miSW (230°)9.2 mphScattered Clouds
5:15 PM44.6 °F30.7 °F58 %29.70 in10.0 miSW (220°)9.2 mphMostly Cloudy
5:35 PM43.9 °F30.4 °F59 %29.70 in10.0 miSW (220°)8.1 mphScattered Clouds
5:55 PM43.3 °F30.2 °F60 %29.70 in10.0 miSSW (210°)8.1 mphMostly Cloudy
6:15 PM43.2 °F30.2 °F60 %29.69 in10.0 miSW (220°)8.1 mphMostly Cloudy
6:35 PM42.8 °F29.8 °F60 %29.69 in10.0 miSSW (210°)9.2 mphMostly Cloudy
6:55 PM43.2 °F29.3 °F58 %29.68 in10.0 miSSW (210°)9.2 mphOvercast
7:15 PM42.6 °F29.7 °F60 %29.68 in10.0 miSW (220°)9.2 mphMostly Cloudy
7:35 PM41.9 °F30.2 °F63 %29.69 in10.0 miSW (220°)9.2 mphOvercast
7:55 PM41.5 °F30.7 °F65 %29.69 in10.0 miSW (230°)10.4 mphOvercast
8:15 PM41.0 °F30.6 °F66 %29.67 in10.0 miSW (220°)8.1 mphOvercast
8:35 PM40.5 °F30.7 °F68 %29.67 in10.0 miWSW (240°)5.8 mphOvercast
8:55 PM40.8 °F30.7 °F67 %29.67 in10.0 miWSW (240°)9.2 mphOvercast
9:15 PM41.2 °F30.2 °F65 %29.68 in10.0 miWSW (250°)10.4 mphOvercast
9:35 PM40.5 °F30.6 °F68 %29.68 in10.0 miWSW (250°)11.5 mphOvercast
9:55 PM40.1 °F30.7 °F69 %29.67 in10.0 miWSW (250°)10.4 mphOvercast
10:15 PM40.1 °F30.7 °F69 %29.68 in10.0 miWest (260°)11.5 mphMostly Cloudy
10:35 PM40.1 °F30.4 °F68 %29.68 in10.0 miWest (260°)11.5 mphMostly Cloudy
10:55 PM40.1 °F30.2 °F68 %29.69 in10.0 miWest (270°)12.7 mph16.1 mphScattered Clouds
11:15 PM38.8 °F30.2 °F71 %29.69 in10.0 miWest (270°)12.7 mph18.4 mphScattered Clouds
11:35 PM39.0 °F30.4 °F71 %29.69 in10.0 miWest (270°)11.5 mph17.3 mphClear
11:55 PM38.7 °F30.9 °F74 %29.70 in10.0 miWest (280°)17.3 mph24.2 mphClear
Hourly data recorded from KBNW, located miles away from Jordan, Iowa







STORIES FROM OUR PARTNERS